This demonstration page uses our WeatherBlox Daily Observations layout. Learn more.

Left ArrowRight Arrow

Hourly Observations for July 16, 2016

Temp ( °F °C ) Dew Point ( °F °C ) Humidity (%) Winds ( mph kmh ) Pressure ( in mb ) Visibility ( mi km ) Precip ( " mm )
12:15 am 00:15 Clear 77 25 72 22 83 83 SW 7 11 30.03 1017 10 16 N/A
12:35 am 00:35 Clear 77 25 72 22 83 83 SW 6 9 30.00 1016 10 16 N/A
12:55 am 00:55 Clear 77 25 72 22 83 83 WSW 5 7 30.00 1016 10 16 N/A
1:15 am 01:15 Clear 77 25 72 22 83 83 WSW 5 7 30.00 1016 10 16 N/A
1:35 am 01:35 Clear 77 25 72 22 83 83 SW 5 7 30.00 1016 10 16 N/A
1:55 am 01:55 Clear 77 25 70 21 79 79 WSW 7 11 30.00 1016 10 16 N/A
2:15 am 02:15 Clear 75 24 72 22 89 89 SW 6 9 30.00 1016 10 16 N/A
2:35 am 02:35 Clear 75 24 70 21 83 83 WSW 5 7 30.00 1016 10 16 N/A
2:55 am 02:55 Clear 75 24 70 21 83 83 SW 3 6 30.00 1016 10 16 N/A
3:15 am 03:15 Clear 75 24 70 21 83 83 W 3 6 30.00 1016 10 16 N/A
3:35 am 03:35 Clear 73 23 70 21 89 89 W 3 6 30.00 1016 10 16 N/A
3:55 am 03:55 Clear 73 23 70 21 89 89 WNW 10 17 30.00 1016 10 16 N/A
4:15 am 04:15 Clear 73 23 70 21 89 89 SSW 7 11 30.00 1016 10 16 N/A
4:35 am 04:35 Clear 73 23 70 21 89 89 SSW 6 9 30.00 1016 10 16 N/A
4:55 am 04:55 Clear 72 22 70 21 94 94 N N/A 30.00 1016 10 16 N/A
5:15 am 05:15 Clear 72 22 70 21 94 94 SSW 7 11 30.00 1016 10 16 N/A
5:35 am 05:35 Clear 72 22 70 21 94 94 SSW 6 9 30.00 1016 10 16 N/A
5:55 am 05:55 Clear 72 22 70 21 94 94 N N/A 30.00 1016 10 16 N/A
6:15 am 06:15 Sunny 70 21 70 21 100 100 N N/A 30.03 1017 10 16 N/A
6:35 am 06:35 Sunny 72 22 70 21 94 94 N N/A 30.03 1017 10 16 N/A
6:55 am 06:55 Sunny 72 22 70 21 94 94 N N/A 30.03 1017 10 16 N/A
7:15 am 07:15 Sunny 72 22 70 21 94 94 NW 3 6 30.03 1017 10 16 N/A
7:35 am 07:35 Sunny 73 23 72 22 94 94 WNW 8 13 30.03 1017 10 16 N/A
7:55 am 07:55 Sunny 77 25 72 22 83 83 W 8 13 30.06 1018 10 16 N/A
8:15 am 08:15 Sunny 79 26 72 22 79 79 W 5 7 30.06 1018 10 16 N/A
8:35 am 08:35 Sunny 81 27 70 21 70 70 WNW 13 20 30.06 1018 10 16 N/A
8:55 am 08:55 Sunny 82 28 68 20 62 62 N 7 11 30.06 1018 10 16 N/A
9:15 am 09:15 Sunny 82 28 68 20 62 62 WNW 12 19 30.06 1018 10 16 N/A
9:35 am 09:35 Sunny 82 28 66 19 58 58 WNW 12 19 30.06 1018 10 16 N/A
9:55 am 09:55 Sunny 84 29 64 18 51 51 NNW 8 13 30.06 1018 10 16 N/A
10:15 am 10:15 Sunny 86 30 66 19 52 52 N 8 13 30.06 1018 10 16 N/A
10:35 am 10:35 Sunny 86 30 68 20 55 55 NNW 6 9 30.06 1018 10 16 N/A
10:55 am 10:55 Sunny 88 31 68 20 52 52 W 8 13 30.03 1017 10 16 N/A
11:15 am 11:15 Sunny 88 31 68 20 52 52 NW 5 7 30.03 1017 10 16 N/A
11:35 am 11:35 Sunny 88 31 70 21 55 55 WNW 7 11 30.03 1017 10 16 N/A
11:55 am 11:55 Sunny 88 31 68 20 52 52 NW 5 7 30.09 1019 10 16 N/A
12:15 pm 12:15 Sunny 90 32 68 20 49 49 W 5 7 30.06 1018 10 16 N/A
12:35 pm 12:35 Sunny 90 32 70 21 52 52 WNW 10 17 30.03 1017 10 16 N/A
12:55 pm 12:55 Sunny 90 32 70 21 52 52 W 7 11 30.03 1017 10 16 N/A
1:15 pm 13:15 Sunny 90 32 70 21 52 52 NW 8 13 30.03 1017 10 16 N/A
1:35 pm 13:35 Sunny 90 32 70 21 52 52 NW 5 7 30.03 1017 10 16 N/A
1:55 pm 13:55 Sunny 90 32 70 21 52 52 WNW 12 19 30.03 1017 10 16 N/A
2:15 pm 14:15 Sunny 91 33 70 21 49 49 W 6 9 30.03 1017 10 16 N/A
2:35 pm 14:35 Sunny 91 33 68 20 46 46 SW 3 6 30.00 1016 10 16 N/A
2:55 pm 14:55 Sunny 91 33 70 21 49 49 W 8 13 30.00 1016 10 16 N/A
3:15 pm 15:15 Partly Cloudy 90 32 70 21 52 52 WNW 3 6 30.00 1016 10 16 N/A
3:35 pm 15:35 Partly Cloudy with Nearby Thunderstorms 88 31 72 22 59 59 WNW 18 30 30.00 1016 10 16 N/A
3:55 pm 15:55 Partly Cloudy with Thunderstorms 79 26 75 24 89 89 WSW 12 19 30.03 1017 10 16 N/A
4:15 pm 16:15 Mostly Cloudy with Strong Thunderstorms 73 23 68 20 83 83 SW 10 17 30.06 1018 3 5 N/A
4:35 pm 16:35 Cloudy 72 22 70 21 94 94 undefined N/A 30.09 1019 10 16 N/A
4:55 pm 16:55 Cloudy with Thunderstorms 72 22 70 21 94 94 SSW 7 11 30.09 1019 10 16 N/A
5:15 pm 17:15 Cloudy with Thunderstorms 72 22 70 21 94 94 WSW 10 17 30.12 1020 5 8 N/A
5:35 pm 17:35 Cloudy with Rain 72 22 72 22 100 100 W 6 9 30.12 1020 7 11 N/A
5:55 pm 17:55 Cloudy with Rain 72 22 72 22 100 100 S 5 7 30.09 1019 5 8 N/A
6:15 pm 18:15 Cloudy with Light Rain 72 22 72 22 100 100 SSE 8 13 30.06 1018 10 16 N/A
6:35 pm 18:35 Mostly Cloudy with Light Rain 72 22 72 22 100 100 WSW 5 7 30.06 1018 10 16 N/A
6:55 pm 18:55 Partly Cloudy 73 23 73 23 100 100 SSW 8 13 30.06 1018 10 16 N/A
7:15 pm 19:15 Sunny 73 23 73 23 100 100 SW 7 11 30.06 1018 10 16 N/A
7:35 pm 19:35 Sunny 73 23 72 22 94 94 SSW 3 6 30.06 1018 10 16 N/A
7:55 pm 19:55 Sunny 73 23 72 22 94 94 SW 3 6 30.06 1018 10 16 N/A
8:15 pm 20:15 Sunny 72 22 72 22 100 100 N N/A 30.09 1019 10 16 N/A
8:35 pm 20:35 Clear 72 22 72 22 100 100 S 6 9 30.09 1019 10 16 N/A
8:55 pm 20:55 Clear 72 22 72 22 100 100 N N/A 30.09 1019 10 16 N/A
9:15 pm 21:15 Clear 72 22 72 22 100 100 SSW 7 11 30.09 1019 10 16 N/A
9:35 pm 21:35 Clear 72 22 72 22 100 100 SSE 3 6 30.09 1019 10 16 N/A
9:55 pm 21:55 Clear 72 22 72 22 100 100 S 6 9 30.12 1020 10 16 N/A
10:15 pm 22:15 Clear 72 22 72 22 100 100 W 3 6 30.12 1020 10 16 N/A
10:35 pm 22:35 Clear 70 21 70 21 100 100 N N/A 30.12 1020 10 16 N/A
10:55 pm 22:55 Clear 70 21 70 21 100 100 W 3 6 30.12 1020 10 16 N/A
11:15 pm 23:15 Clear 70 21 70 21 100 100 N N/A 30.12 1020 10 16 N/A
11:35 pm 23:35 Clear 70 21 70 21 100 100 S 3 6 30.12 1020 10 16 N/A
11:55 pm 23:55 Clear 72 22 72 22 100 100 N N/A 30.12 1020 10 16 N/A

Powered by AerisWeather